Volver al catálogo

COSMOS 642

ActivoMilitarLEO
NORAD 7266·PAYLOAD·🇷🇺 Russia

Lanzado Apr 23, 1974 desde Plesetsk Cosmodrome

Loading…

Próximos Pases (próximas 24 horas)

TLE

ActualizadoSource: Space-Track

Época: Sep 14, 2026, 11:23 UTC

1 07266U 74024B   26257.47476097  .00000011  00000-0  14577-3 0  9993
2 07266  74.0184 148.9734 0103204  28.7038 143.7569 12.65842536421005

Sigue COSMOS 642 en tiempo real con AllMySat

Download on the App Store